VE3KSR Weather Reports


Display with metric or nautical units.
time (UTC)temp
F
wind
direction
speed
MPH
gust
MPH
rain 1hr
in
rain 24hr
in
rain mn
in
humidity
%
barometer
mb
20140922221308 48 302 11.0 16.0 0.13 0.00 0.00 83 1020.3
20140922220808 48 340 13.0 23.0 0.13 0.00 0.00 82 1020.3
20140922220308 48 319 14.0 18.0 0.13 0.00 0.00 83 1020.2
20140922215808 48 335 14.0 19.0 0.13 0.00 0.00 84 1020.1
20140922215308 47 311 12.0 18.0 0.13 0.00 0.00 84 1020.0
20140922214808 48 319 12.0 18.0 0.13 0.00 0.00 83 1019.9
20140922214309 48 342 16.0 23.0 0.13 0.00 0.00 82 1019.9
20140922213808 48 316 15.0 20.0 0.13 0.00 0.00 83 1019.7
20140922213707 48 328 16.0 22.0 0.13 0.00 0.00 82 1019.7
20140922213308 48 328 16.0 22.0 0.13 0.00 0.00 82 1019.7
20140922212809 48 342 15.0 22.0 0.13 0.00 0.00 81 1019.6
20140922212308 48 326 13.0 20.0 0.13 0.00 0.00 82 1019.7
20140922211808 47 342 15.0 21.0 0.13 0.00 0.00 81 1019.7
20140922211308 48 314 16.0 23.0 0.13 0.00 0.00 80 1019.8
20140922210808 48 338 16.0 22.0 0.13 0.00 0.00 78 1019.8
20140922210308 49 4 14.0 23.0 0.13 0.00 0.00 77 1020.0
20140922205811 49 330 15.0 18.0 0.13 0.00 0.00 78 1020.0
20140922205308 49 322 10.0 15.0 0.13 0.00 0.00 80 1019.8
20140922204809 48 326 15.0 20.0 0.13 0.00 0.00 79 1019.7
20140922204308 47 330 14.0 18.0 0.13 0.00 0.00 80 1019.4
20140922203808 48 298 10.0 15.0 0.13 0.00 0.00 80 1019.3
20140922203308 47 321 13.0 20.0 0.13 0.00 0.00 81 1019.3
20140922202808 47 328 16.0 22.0 0.13 0.00 0.00 79 1019.2
20140922202308 47 312 13.0 21.0 0.13 0.00 0.00 81 1019.1
20140922201808 47 338 15.0 21.0 0.13 0.00 0.00 80 1019.1
20140922201308 48 323 13.0 20.0 0.13 0.00 0.00 79 1019.1
20140922200808 47 345 13.0 21.0 0.13 0.00 0.00 82 1019.1
20140922195308 47 15 18.0 26.0 0.13 0.00 0.00 81 1019.4
20140922194808 46 6 14.0 23.0 0.13 0.00 0.00 82 1019.5
20140922194308 47 356 18.0 26.0 0.13 0.00 0.00 80 1019.4
20140922193808 48 328 13.0 19.0 0.13 0.00 0.00 80 1019.4
20140922193309 47 326 18.0 24.0 0.13 0.00 0.00 81 1019.5
20140922192808 47 330 19.0 26.0 0.13 0.00 0.00 81 1019.4
20140922192308 47 315 14.0 24.0 0.13 0.00 0.00 83 1019.3
20140922191808 47 340 17.0 24.0 0.13 0.00 0.00 83 1019.2
20140922191312 47 314 11.0 20.0 0.13 0.00 0.00 83 1019.0
20140922190808 46 305 18.0 26.0 0.13 0.00 0.00 82 1018.9
20140922190308 46 298 16.0 23.0 0.13 0.00 0.00 83 1019.0
20140922185808 46 330 15.0 21.0 0.13 0.00 0.00 83 1018.9
20140922185308 46 345 18.0 24.0 0.13 0.00 0.00 83 1018.7
20140922184811 46 338 16.0 22.0 0.13 0.00 0.00 84 1018.7
20140922184310 46 319 14.0 24.0 0.13 0.00 0.00 84 1018.7
20140922183809 46 308 14.0 21.0 0.13 0.00 0.00 86 1018.8
20140922183308 46 305 15.0 21.0 0.13 0.00 0.00 85 1018.8
20140922182808 47 307 12.0 17.0 0.13 0.00 0.00 85 1019.0
20140922182308 46 340 15.0 22.0 0.13 0.00 0.00 84 1018.9
20140922181808 47 340 13.0 20.0 0.13 0.00 0.00 83 1019.1
20140922181313 2504 350 13.0 22.0 0.13 0.00 0.00 81 1019.1
20140922181308 46 350 13.0 22.0 0.13 0.00 0.00 81 1019.1
20140922180808 46 316 11.0 15.0 0.13 0.00 0.00 83 1019.0
20140922180309 46 326 15.0 21.0 0.13 0.00 0.00 83 1019.0
20140922175808 46 293 15.0 20.0 0.13 0.00 0.00 85 1018.7
20140922175308 46 332 12.0 19.0 0.13 0.00 0.00 85 1018.6
20140922174808 46 328 11.0 18.0 0.13 0.00 0.00 85 1018.6
20140922174310 46 319 12.0 19.0 0.13 0.00 0.00 84 1018.5
20140922173810 46 325 10.0 14.0 0.13 0.00 0.00 86 1018.6
20140922173310 45 346 14.0 21.0 0.13 0.00 0.00 85 1018.5
20140922172809 45 304 13.0 20.0 0.13 0.00 0.00 86 1018.5
20140922172309 45 318 12.0 18.0 0.13 0.00 0.00 87 1018.7
20140922171810 45 349 14.0 19.0 0.13 0.00 0.00 87 1018.9
20140922171310 45 34 15.0 22.0 0.13 0.00 0.00 88 1018.8
20140922170808 45 338 18.0 23.0 0.13 0.00 0.00 86 1018.8
20140922170313 45 325 12.0 19.0 0.13 0.00 0.00 86 1018.8
20140922165808 45 340 14.0 19.0 0.13 0.00 0.00 86 1018.8
20140922165310 45 359 13.0 18.0 0.13 0.00 0.00 86 1018.7
20140922164808 45 353 16.0 22.0 0.13 0.00 0.00 86 1018.4
20140922164309 45 318 15.0 21.0 0.13 0.00 0.00 84 1018.2
20140922163808 45 329 13.0 18.0 0.13 0.00 0.00 85 1018.3
20140922163310 45 352 16.0 23.0 0.13 0.00 0.00 84 1018.2
20140922162809 45 4 18.0 25.0 0.13 0.00 0.00 84 1018.1
20140922162310 45 323 16.0 27.0 0.13 0.00 0.00 84 1017.9
20140922162036 44 339 16.0 21.0 0.13 0.00 0.00 83 1018.1
20140922161808 44 339 16.0 21.0 0.13 0.00 0.00 83 1018.1
20140922161309 44 340 17.0 26.0 0.13 0.00 0.00 84 1018.1
20140922160808 44 353 16.0 23.0 0.13 0.00 0.00 84 1018.2
20140922160308 44 323 17.0 22.0 0.13 0.00 0.00 84 1018.4
20140922155809 44 328 18.0 26.0 0.13 0.00 0.00 84 1018.3
20140922155308 44 356 16.0 23.0 0.13 0.00 0.00 86 1018.5
20140922154809 44 4 17.0 22.0 0.13 0.00 0.00 86 1018.4
20140922154309 43 329 18.0 28.0 0.13 0.00 0.00 86 1018.4
20140922153809 44 326 18.0 29.0 0.13 0.00 0.00 87 1018.3
20140922153309 44 359 23.0 29.0 0.13 0.00 0.00 86 1018.1
20140922152809 43 330 14.0 21.0 0.13 0.00 0.00 88 1018.1
20140922152309 43 336 15.0 23.0 0.13 0.00 0.00 89 1017.9
20140922151810 43 350 15.0 21.0 0.13 0.00 0.00 90 1017.7
20140922151309 43 357 21.0 26.0 0.13 0.00 0.00 90 1017.7
20140922150810 42 330 15.0 20.0 0.13 0.00 0.00 91 1017.9
20140922150309 42 329 19.0 27.0 0.13 0.00 0.00 91 1018.1
20140922145809 42 353 16.0 24.0 0.13 0.00 0.00 91 1018.1
20140922145310 42 336 18.0 26.0 0.13 0.00 0.00 92 1018.3
20140922145103 42 3 15.0 21.0 0.13 0.00 0.00 92 1018.2
20140922144809 42 3 15.0 21.0 0.13 0.00 0.00 92 1018.2
20140922144310 42 17 17.0 25.0 0.13 0.00 0.00 91 1018.3
20140922143809 43 319 14.0 20.0 0.13 0.00 0.00 91 1018.0
20140922143309 43 347 17.0 23.0 0.13 0.00 0.00 91 1017.7
20140922142810 42 353 13.0 22.0 0.13 0.00 0.00 92 1017.6
20140922142309 42 339 14.0 20.0 0.13 0.00 0.00 91 1017.5
20140922141809 42 321 16.0 23.0 0.13 0.00 0.00 91 1017.2
20140922141309 42 339 13.0 19.0 0.13 0.00 0.00 91 1017.2
20140922140809 42 326 13.0 20.0 0.13 0.00 0.00 91 1017.0
20140922140501 42 352 14.0 19.0 0.13 0.00 0.00 91 1017.0
20140922140309 42 352 14.0 19.0 0.13 0.00 0.00 91 1017.0
20140922135809 42 339 12.0 20.0 0.13 0.00 0.00 91 1017.1
20140922135310 42 17 13.0 20.0 0.13 0.00 0.00 91 1017.1
20140922134809 42 338 17.0 25.0 0.13 0.00 0.00 92 1017.4
20140922134309 41 356 17.0 25.0 0.13 0.00 0.00 92 1017.5
20140922133810 41 336 16.0 23.0 0.13 0.00 0.00 91 1017.5
20140922133314 41 353 15.0 23.0 0.13 0.00 0.00 91 1017.4
20140922133309 41 353 15.0 23.0 0.13 0.00 0.00 91 1017.4
20140922132809 41 354 17.0 27.0 0.13 0.00 0.00 92 1017.3
20140922132310 41 328 16.0 22.0 0.13 0.00 0.00 92 1017.2
20140922131811 41 359 17.0 23.0 0.13 0.00 0.00 92 1017.0
20140922131309 41 330 15.0 22.0 0.13 0.00 0.00 92 1016.8
20140922130809 42 359 13.0 18.0 0.13 0.00 0.00 92 1016.7
20140922130309 42 350 15.0 19.0 0.13 0.00 0.00 92 1016.8
20140922125810 41 10 13.0 18.0 0.13 0.00 0.00 92 1016.7
20140922125312 41 14 15.0 21.0 0.13 0.00 0.00 92 1016.5
20140922124809 41 13 15.0 22.0 0.13 0.00 0.00 92 1016.3
20140922124309 41 13 13.0 18.0 0.13 0.00 0.00 92 1016.6
20140922123811 41 357 16.0 21.0 0.13 0.00 0.00 91 1016.6
20140922123309 41 359 16.0 25.0 0.13 0.00 0.00 91 1016.6
20140922122809 41 347 14.0 20.0 0.13 0.00 0.00 91 1016.7
20140922122309 41 346 14.0 21.0 0.13 0.00 0.00 91 1016.6
20140922121811 41 20 15.0 24.0 0.13 0.00 0.00 91 1016.4
20140922121309 41 316 15.0 19.0 0.13 0.00 0.00 91 1016.2
20140922120809 41 354 22.0 31.0 0.13 0.00 0.00 90 1016.1
20140922120310 41 21 21.0 30.0 0.13 0.00 0.00 90 1016.0
20140922115810 41 352 20.0 32.0 0.13 0.00 0.00 91 1015.7
20140922115314 41 17 13.0 22.0 0.13 0.00 0.00 91 1015.7
20140922114809 41 352 19.0 25.0 0.13 0.00 0.00 91 1015.5
20140922114310 41 330 17.0 25.0 0.13 0.00 0.00 92 1015.5
20140922113811 41 307 15.0 24.0 0.13 0.00 0.00 93 1015.5
20140922113310 41 340 16.0 22.0 0.13 0.00 0.00 93 1015.5
20140922112810 41 332 17.0 22.0 0.13 0.00 0.00 94 1015.7
20140922112309 41 343 16.0 23.0 0.13 0.00 0.00 94 1015.6
20140922111811 41 343 15.0 22.0 0.13 0.00 0.00 94 1015.5
20140922111313 41 352 16.0 21.0 0.13 0.00 0.00 94 1015.4
20140922110809 41 7 15.0 21.0 0.13 0.00 0.00 95 1015.3
20140922110310 41 330 16.0 22.0 0.13 0.00 0.00 96 1015.3
20140922105811 42 10 16.0 25.0 0.13 0.00 0.00 96 1015.0
20140922105311 42 8 14.0 21.0 0.13 0.00 0.00 97 1014.7
20140922104813 42 311 13.0 18.0 0.13 0.00 0.00 97 1014.7
20140922104310 42 322 11.0 16.0 0.13 0.00 0.00 97 1014.6
20140922103809 42 318 13.0 18.0 0.13 0.00 0.00 97 1014.5
20140922103312 42 343 9.0 13.0 0.13 0.00 0.00 97 1014.5
20140922102811 42 3 10.0 13.0 0.13 0.00 0.00 97 1014.4
20140922102312 42 343 8.0 13.0 0.13 0.00 0.00 96 1014.4
20140922101809 42 335 12.0 16.0 0.13 0.00 0.00 97 1014.5
20140922101311 42 335 12.0 16.0 0.13 0.00 0.00 97 1014.6
20140922100810 42 332 10.0 14.0 0.13 0.00 0.00 97 1014.6
20140922100500 42 347 11.0 15.0 0.13 0.00 0.00 97 1014.6
20140922100312 42 347 11.0 15.0 0.13 0.00 0.00 97 1014.6
20140922095812 42 335 12.0 20.0 0.13 0.00 0.00 97 1014.5
20140922095311 42 345 17.0 22.0 0.13 0.00 0.00 97 1014.3
20140922094812 41 352 17.0 24.0 0.13 0.00 0.00 97 1014.1
20140922094310 42 349 14.0 19.0 0.13 0.00 0.00 97 1014.0
20140922093811 42 349 14.0 22.0 0.13 0.00 0.00 97 1013.8
20140922093310 42 3 13.0 17.0 0.13 0.00 0.00 97 1013.6
20140922092809 42 345 15.0 20.0 0.13 0.00 0.00 97 1013.7
20140922092309 42 332 14.0 20.0 0.13 0.00 0.00 97 1013.6
20140922091810 42 349 14.0 21.0 0.13 0.00 0.00 97 1013.6
20140922091311 42 333 13.0 19.0 0.13 0.00 0.00 96 1013.5
20140922090810 42 328 13.0 18.0 0.13 0.00 0.00 97 1013.6
20140922090309 42 335 13.0 18.0 0.13 0.00 0.00 97 1013.6
20140922085810 42 347 14.0 23.0 0.13 0.00 0.00 97 1013.6
20140922085310 42 357 16.0 21.0 0.13 0.00 0.00 97 1013.6
20140922084811 42 321 16.0 25.0 0.13 0.00 0.00 97 1013.4
20140922084312 42 332 13.0 18.0 0.13 0.00 0.00 97 1013.5
20140922083810 42 338 16.0 22.0 0.13 0.00 0.00 97 1013.3
20140922083310 42 322 14.0 21.0 0.13 0.00 0.00 96 1013.2
20140922082810 42 340 14.0 18.0 0.13 0.00 0.00 96 1013.0
20140922082310 42 349 14.0 19.0 0.13 0.00 0.00 96 1012.9
20140922081809 42 346 15.0 21.0 0.13 0.00 0.00 96 1012.8
20140922081310 42 343 11.0 20.0 0.13 0.00 0.00 96 1012.6
20140922080810 42 345 14.0 19.0 0.13 0.00 0.00 96 1012.3
20140922080310 42 350 13.0 19.0 0.13 0.00 0.00 96 1012.2
20140922075810 42 329 12.0 19.0 0.13 0.00 0.00 97 1012.3
20140922075310 42 321 13.0 16.0 0.13 0.00 0.00 97 1012.3
20140922074809 42 316 13.0 21.0 0.13 0.00 0.00 97 1012.5
20140922074310 42 350 13.0 21.0 0.13 0.00 0.00 97 1012.6
20140922073812 42 339 12.0 18.0 0.13 0.00 0.00 97 1012.5
20140922073310 42 353 12.0 17.0 0.13 0.00 0.00 97 1012.6
20140922072811 42 352 13.0 17.0 0.13 0.00 0.00 97 1012.7
20140922072311 42 1 13.0 18.0 0.13 0.00 0.00 97 1012.8
20140922072007 42 15 14.0 20.0 0.13 0.00 0.00 97 1012.7
20140922071810 42 15 14.0 20.0 0.13 0.00 0.00 97 1012.7
20140922071310 43 353 15.0 22.0 0.13 0.00 0.00 97 1012.6
20140922070811 43 345 17.0 23.0 0.13 0.00 0.00 97 1012.5
20140922070310 43 339 17.0 23.0 0.13 0.00 0.00 97 1012.4
20140922065810 43 298 15.0 20.0 0.13 0.00 0.00 97 1012.2
20140922065310 43 3 18.0 24.0 0.13 0.00 0.00 96 1012.3
20140922064810 43 34 15.0 21.0 0.13 0.00 0.00 96 1012.3
20140922064311 43 346 19.0 32.0 0.13 0.00 0.00 95 1012.0
20140922063810 43 349 16.0 21.0 0.13 0.00 0.00 95 1011.9
20140922063312 43 349 17.0 23.0 0.13 0.00 0.00 94 1012.2
20140922062810 43 347 17.0 24.0 0.13 0.00 0.00 92 1012.0
20140922062312 43 3 18.0 22.0 0.13 0.00 0.00 95 1012.3
20140922061810 43 345 18.0 26.0 0.13 0.00 0.00 95 1012.4
20140922061310 43 359 18.0 26.0 0.13 0.00 0.00 96 1012.5
20140922060810 43 343 17.0 26.0 0.13 0.00 0.00 96 1012.6
20140922060310 43 6 15.0 21.0 0.13 0.00 0.00 96 1012.8
20140922055811 43 359 14.0 20.0 0.13 0.00 0.00 96 1012.8
20140922055310 43 3 17.0 23.0 0.13 0.00 0.00 96 1012.7
20140922054810 43 18 17.0 26.0 0.13 0.00 0.00 96 1012.5
20140922054311 43 4 16.0 25.0 0.13 0.00 0.00 96 1012.2
20140922053810 43 10 19.0 25.0 0.13 0.00 0.00 96 1011.9
20140922053311 43 347 17.0 24.0 0.13 0.00 0.00 96 1011.8
20140922052812 43 0 17.0 26.0 0.13 0.00 0.00 96 1011.6
20140922052310 43 11 20.0 25.0 0.13 0.00 0.00 97 1011.4
20140922051810 43 350 18.0 23.0 0.13 0.00 0.00 97 1011.3
20140922051311 43 7 17.0 23.0 0.13 0.00 0.00 97 1011.1
20140922050811 43 20 16.0 24.0 0.13 0.00 0.00 97 1011.2
20140922050310 43 4 20.0 26.0 0.13 0.00 0.00 97 1011.0
20140922045813 43 8 18.0 23.0 0.13 0.00 0.00 97 1011.2
20140922045310 43 347 20.0 27.0 0.13 0.00 0.00 97 1011.2
20140922044810 43 339 19.0 26.0 0.13 0.00 0.00 97 1011.2
20140922044310 43 14 23.0 32.0 0.13 0.00 0.00 96 1011.3
20140922043810 43 354 22.0 30.0 0.13 0.00 0.00 96 1011.6
20140922043310 43 4 22.0 35.0 0.13 0.00 0.00 95 1011.4
20140922042810 43 8 21.0 30.0 0.13 0.00 0.00 95 1011.5
20140922042310 43 357 27.0 35.0 0.13 0.00 0.00 95 1011.3
20140922041813 43 359 25.0 34.0 0.13 0.00 0.00 95 1011.2
20140922041310 44 3 23.0 33.0 0.13 0.00 0.00 95 1011.1
20140922040811 44 11 22.0 30.0 0.13 0.00 0.00 95 1011.0
20140922040312 44 349 21.0 29.0 0.13 0.00 0.00 95 1010.9
20140922035810 44 340 24.0 36.0 0.13 0.00 0.00 95 1010.7
20140922035310 44 322 23.0 36.0 0.13 0.00 0.00 96 1010.6
20140922034810 44 15 21.0 29.0 0.13 0.00 0.00 96 1010.6
20140922034310 44 15 21.0 26.0 0.13 0.00 0.00 96 1010.6
20140922033810 44 4 21.0 35.0 0.13 0.00 0.00 96 1010.3
20140922033310 44 11 23.0 32.0 0.13 0.00 0.00 96 1010.3
20140922032810 44 8 21.0 34.0 0.13 0.00 0.00 96 1010.2
20140922032414 44 6 20.0 25.0 0.13 0.00 0.00 97 1010.1
20140922032310 44 17 21.0 28.0 0.13 0.00 0.00 97 1010.2
20140922031814 44 6 20.0 25.0 0.13 0.00 0.00 97 1010.1
20140922031810 44 6 20.0 25.0 0.13 0.00 0.00 97 1010.1
20140922031312 44 356 22.0 32.0 0.13 0.00 0.00 97 1009.9
20140922030810 44 342 21.0 30.0 0.13 0.00 0.00 97 1009.7
20140922030312 44 10 18.0 25.0 0.13 0.00 0.00 97 1009.6
20140922025810 44 3 19.0 27.0 0.13 0.00 0.00 97 1009.6
20140922025311 44 352 17.0 24.0 0.13 0.00 0.00 97 1009.2
20140922024811 45 1 19.0 26.0 0.13 0.00 0.00 97 1009.1
20140922024310 45 18 17.0 24.0 0.13 0.00 0.00 97 1009.1
20140922023810 44 14 22.0 32.0 0.13 0.00 0.00 97 1008.9
20140922023310 44 1 24.0 33.0 0.13 0.00 0.00 97 1008.6
20140922022810 44 352 23.0 33.0 0.13 0.00 0.00 97 1008.6
20140922022310 45 11 21.0 31.0 0.13 0.00 0.00 97 1008.5
20140922021810 45 3 17.0 24.0 0.13 0.00 0.00 97 1008.4
20140922021311 45 0 24.0 31.0 0.13 0.00 0.00 97 1008.2
20140922020810 45 326 22.0 30.0 0.13 0.00 0.00 97 1007.9
20140922020312 45 359 24.0 32.0 0.13 0.00 0.00 97 1007.7
20140922015811 45 347 22.0 31.0 0.13 0.00 0.00 97 1007.7
20140922015310 45 4 21.0 31.0 0.13 0.00 0.00 97 1007.5
20140922014811 45 347 19.0 27.0 0.13 0.00 0.00 97 1007.5
20140922014310 45 3 23.0 29.0 0.13 0.00 0.00 97 1007.1
20140922013810 45 1 27.0 35.0 0.13 0.00 0.00 97 1006.8
20140922013310 45 14 24.0 35.0 0.13 0.00 0.00 97 1006.8
20140922012810 45 353 24.0 37.0 0.13 0.00 0.00 97 1006.5
20140922012311 45 0 26.0 39.0 0.13 0.00 0.00 98 1006.2
20140922011811 45 6 22.0 31.0 0.13 0.00 0.00 98 1006.1
20140922011310 45 349 25.0 37.0 0.13 0.00 0.00 98 1006.1
20140922010810 45 1 25.0 33.0 0.13 0.00 0.00 98 1006.1
20140922010310 45 0 26.0 33.0 0.13 0.00 0.00 98 1005.8
20140922005810 45 354 27.0 40.0 0.13 0.00 0.00 97 1005.7
20140922005310 46 357 23.0 35.0 0.13 0.00 0.00 97 1005.6
20140922004810 46 0 21.0 32.0 0.13 0.00 0.00 98 1005.5
20140922004311 46 359 27.0 38.0 0.13 0.00 0.00 98 1005.2
20140922003848 46 357 24.0 37.0 0.13 0.00 0.00 98 1004.9
20140922003811 46 357 24.0 37.0 0.13 0.00 0.00 98 1004.9
20140922003310 46 359 23.0 32.0 0.13 0.00 0.00 97 1004.9
20140922002812 46 357 23.0 32.0 0.13 0.00 0.00 97 1004.8
20140922002312 47 25 22.0 34.0 0.13 0.00 0.00 97 1004.6
20140922001811 47 10 23.0 38.0 0.13 0.00 0.00 97 1004.5
20140922001311 47 357 23.0 35.0 0.13 0.00 0.00 97 1004.3
20140922000810 47 343 25.0 34.0 0.13 0.00 0.00 97 1004.2
20140922000310 48 356 22.0 32.0 0.13 0.00 0.00 97 1004.2
20140921235810 48 338 23.0 32.0 0.13 0.00 0.00 97 1003.9
20140921235311 49 349 25.0 35.0 0.13 0.00 0.00 96 1003.5
20140921234811 49 352 20.0 29.0 0.13 0.00 0.00 96 1003.8
20140921234310 50 25 19.0 27.0 0.13 0.00 0.00 95 1003.4
20140921233811 51 332 18.0 25.0 0.13 0.00 0.00 95 1003.4
20140921233311 52 326 17.0 24.0 0.13 0.00 0.00 96 1003.3
20140921232811 52 314 10.0 16.0 0.13 0.00 0.00 95 1003.1
20140921232312 52 304 11.0 16.0 0.13 0.00 0.00 95 1003.2
20140921231812 52 336 9.0 14.0 0.13 0.00 0.00 95 1003.2
20140921231311 52 301 11.0 17.0 0.13 0.00 0.00 95 1003.1
20140921230812 52 336 7.0 10.0 0.13 0.00 0.00 95 1003.1
20140921230311 52 349 5.0 8.0 0.13 0.00 0.00 95 1003.1
20140921225811 52 329 6.0 8.0 0.13 0.00 0.00 94 1002.9
20140921225312 52 322 6.0 9.0 0.13 0.00 0.00 94 1002.8
20140921224814 52 323 7.0 9.0 0.13 0.00 0.00 94 1002.7
20140921224311 52 295 9.0 11.0 0.13 0.00 0.00 94 1002.6
20140921223811 52 290 14.0 16.0 0.13 0.00 0.00 94 1002.5
20140921223311 52 293 12.0 16.0 0.13 0.00 0.00 93 1002.6
20140921222811 52 291 12.0 15.0 0.13 0.00 0.00 93 1002.4
20140921222310 52 297 11.0 13.0 0.13 0.00 0.00 93 1002.4
20140921222039 52 284 10.0 12.0 0.13 0.00 0.00 92 1002.3
20140921221811 52 284 10.0 12.0 0.13 0.00 0.00 92 1002.3